Tracking 31027 objects as of 19-Jul-2025
HD Live streaming from Space Station
objects crossing your sky now

BEIDOU 3M8

Track BEIDOU 3M8 now!
BEIDOU 3M8 is classified as:


NORAD ID: 43246
Int'l Code: 2018-029B
Perigee: 21,527.1 km
Apogee: 21,543.7 km
Inclination: 54.5 °
Period: 773.2 minutes
Semi major axis: 27906 km
RCS: Unknown
Launch date: March 29, 2018
Source: People's Republic of China (PRC)
Launch site: Xichang Space Center, China (XSC)
Your satellite tracking list
ARIANE 5 R/B
Track 1 satellite(s)




NASA's NSSDC Master Catalog

Two Line Element Set (TLE):
1 43246U 18029B   25198.89552320 -.00000079  00000-0  00000-0 0  9995
2 43246  54.4926 311.6487 0002962  25.4197 334.6162  1.86229063 49654
Source of the keplerian elements: AFSPC